Погода в Сабурово

Россия / Московская область     55°52′55″N   37°15′50″E
темп.,
°C
ветер,
м/с
пор.,
м/с
влажн.,
%
обл.,
%
осадки,
мм/ч
давл.,
гПа
погр.,
м
14 апреля, ср
ср1400:00+12ююв513585 0.0 1021321
03:00+10юв396853 0.0 1020181
06:00+9ююв4137952 0.0 1020288
09:00+14ю497145 0.0 1019475
12:00+17ю585782 0.0 10191123
15:00+18ю5749100 0.0 10181758
18:00+17ююз235574 0.0 101791
21:00+13юв225790 0.0 101811
15 апреля, чт
чт1500:00+11юв2254100 0.0 101710
03:00+9всв226095 0.0 101710
06:00+8всв3368100 0.0 101748
09:00+12всв3557100 0.0 1018311
12:00+15всв3446100 0.0 1018743
15:00+17всв5642100 0.0 10171360
18:00+14св61159100 0.0 1017835
21:00+9св7148298 0.0 1020552
16 апреля, пт
пт1600:00+7св61386100 0.0 1020526
03:00+6св51187100 0.1 1021463
06:00+5всв61388100 0.0 1022487
09:00+8всв61078100 0.0 1023558
12:00+12всв7963100 0.0 1023794
15:00+14всв7956100 0.0 10231148
18:00+12всв61062100 0.0 10231044
21:00+9всв61367100 0.0 1024655
17 апреля, сб
сб1700:00+7всв51272100 0.0 1025463
03:00+5всв5127286 0.0 1026409
06:00+4всв5137286 0.0 1027447
09:00+8всв6105878 0.0 1027603
12:00+12всв68475 0.0 10271044
15:00+13всв783515 0.0 10271374
18:00+12всв69405 0.0 10271095
21:00+7всв411565 0.0 1028337
18 апреля, вс
вс1800:00+6всв412621 0.0 1029336
03:00+4всв411695 0.0 1029259
06:00+3всв411740 0.0 1030248
09:00+8всв59545 0.0 1030774
12:00+12всв57415 0.0 10291555
15:00+13всв56375 0.0 10291996
18:00+12всв474539 0.0 1029823
21:00+7всв386315 0.0 1030161